,,Stat5,,Stat1,,Stat2,,Stat3,,Stat4,,Wind1,,Wind1,
time,status,PA1M_AVG,status,PR1M_SUM,status,RH1M_AVG,status,SR1M_AVG,status,TA1M_AVG,status,W1dAve1m,status,W1sAve1m,
2003-06-12, 00:00:01,VALID,919.065,VALID,0,VALID,100,VALID,-0.0509425,VALID,19.1044,VALID,194,VALID,0.226151,
2003-06-12, 00:01:00,VALID,919.068,VALID,0,VALID,100,VALID,-0.0169808,VALID,19.1074,VALID,182,VALID,0.482475,
2003-06-12, 00:02:00,VALID,919.082,VALID,0,VALID,100,VALID,-0.0679233,VALID,19.1074,VALID,172,VALID,0.748264,
2003-06-12, 00:03:00,VALID,919.083,VALID,0,VALID,100,VALID,-0.101885,VALID,19.1078,VALID,172,VALID,0.904772,
2003-06-12, 00:04:00,VALID,919.083,VALID,0,VALID,100,VALID,-0.0679233,VALID,19.1078,VALID,163,VALID,1.06517,
2003-06-12, 00:05:00,VALID,919.071,VALID,0,VALID,100,VALID,-0.0339617,VALID,19.1272,VALID,147,VALID,0.963049,
2003-06-12, 00:06:01,VALID,919.052,VALID,0,VALID,100,VALID,-0.0509425,VALID,19.1272,VALID,148,VALID,1.1276,
2003-06-12, 00:07:00,VALID,919.038,VALID,0,VALID,100,VALID,-0.0509425,VALID,19.1272,VALID,146,VALID,1.40519,
2003-06-12, 00:08:00,VALID,919.023,VALID,0,VALID,100,VALID,-0.0679233,VALID,19.1366,VALID,139,VALID,1.31081,
2003-06-12, 00:09:00,VALID,919.01,VALID,0,VALID,100,VALID,-0.0509425,VALID,19.1399,VALID,120,VALID,0.609152,
2003-06-12, 00:10:00,VALID,919.015,VALID,0,VALID,100,VALID,-0.0509425,VALID,19.1565,VALID,118,VALID,0.719172,
2003-06-12, 00:11:00,VALID,919.011,VALID,0,VALID,100,VALID,-0.0509425,VALID,19.1433,VALID,110,VALID,0.763622,
2003-06-12, 00:12:00,VALID,919.016,VALID,0,VALID,100,VALID,-0.0509425,VALID,19.1297,VALID,106,VALID,1.11674,
2003-06-12, 00:13:00,VALID,919.016,VALID,0,VALID,100,VALID,-0.0509425,VALID,19.1433,VALID,92,VALID,1.07834,
2003-06-12, 00:14:00,VALID,919.013,VALID,0,VALID,100,VALID,-0.0509425,VALID,19.1463,VALID,74,VALID,0.829427,
2003-06-12, 00:15:01,VALID,919.008,VALID,0,VALID,100,VALID,-0.0169808,VALID,19.1689,VALID,70,VALID,0.927734,
2003-06-12, 00:16:00,VALID,918.986,VALID,0,VALID,100,VALID,-0.0339617,VALID,19.192,VALID,45,VALID,0.992388,
2003-06-12, 00:17:00,VALID,918.951,VALID,0,VALID,100,VALID,-0.0509425,VALID,19.2081,VALID,47,VALID,0.926482,
2003-06-12, 00:18:00,VALID,918.945,VALID,0,VALID,100,VALID,-0.0679233,VALID,19.2019,VALID,46,VALID,0.61263,
2003-06-12, 00:19:00,VALID,918.922,VALID,0,VALID,100,VALID,-0.0169808,VALID,19.1719,VALID,83,VALID,0.604941,
2003-06-12, 00:20:00,VALID,918.903,VALID,0,VALID,100,VALID,-0.0339617,VALID,19.1498,VALID,110,VALID,1.00493,
2003-06-12, 00:21:00,VALID,918.896,VALID,0,VALID,100,VALID,-0.0169808,VALID,19.1362,VALID,104,VALID,1.05345,
2003-06-12, 00:22:00,VALID,918.878,VALID,0,VALID,100,VALID,-0.0509425,VALID,19.1399,VALID,108,VALID,0.959635,
2003-06-12, 00:23:00,VALID,918.875,VALID,0,VALID,100,VALID,-0.0509425,VALID,19.117,VALID,100,VALID,0.980152,
2003-06-12, 00:24:00,VALID,918.868,VALID,0,VALID,100,VALID,-0.0339617,VALID,19.1237,VALID,91,VALID,1.05983,
2003-06-12, 00:25:01,VALID,918.875,VALID,0,VALID,100,VALID,-0.0509425,VALID,19.1235,VALID,93,VALID,1.30258,
2003-06-12, 00:26:01,VALID,918.878,VALID,0,VALID,100,VALID,-0.0169808,VALID,19.1299,VALID,100,VALID,1.58293,
2003-06-12, 00:27:00,VALID,918.893,VALID,0,VALID,100,VALID,-0.0169808,VALID,19.1329,VALID,88,VALID,1.0891,
2003-06-12, 00:28:00,VALID,918.886,VALID,0,VALID,100,VALID,-0.0169808,VALID,19.1461,VALID,88,VALID,1.3655,
2003-06-12, 00:29:00,VALID,918.879,VALID,0,VALID,100,VALID,0,VALID,19.1364,VALID,95,VALID,1.23192,
2003-06-12, 00:30:00,VALID,918.876,VALID,0,VALID,100,VALID,0,VALID,19.1493,VALID,77,VALID,1.26731,
2003-06-12, 00:31:00,VALID,918.853,VALID,0,VALID,100,VALID,0,VALID,19.1493,VALID,86,VALID,1.08874,
2003-06-12, 00:32:01,VALID,918.827,VALID,0,VALID,100,VALID,-0.0339617,VALID,19.1486,VALID,100,VALID,1.1567,
2003-06-12, 00:33:00,VALID,918.816,VALID,0,VALID,100,VALID,0,VALID,19.1682,VALID,123,VALID,0.936233,
2003-06-12, 00:34:01,VALID,918.783,VALID,0,VALID,100,VALID,0,VALID,19.1975,VALID,60,VALID,0.496962,
2003-06-12, 00:35:01,VALID,918.75,VALID,0,VALID,100,VALID,0.0169808,VALID,19.194,VALID,88,VALID,0.865625,
2003-06-12, 00:36:00,VALID,918.73,VALID,0,VALID,100,VALID,0,VALID,19.2044,VALID,88,VALID,1.14263,
2003-06-12, 00:37:01,VALID,918.731,VALID,0,VALID,100,VALID,-0.0169808,VALID,19.198,VALID,87,VALID,0.58133,
2003-06-12, 00:38:00,VALID,918.726,VALID,0,VALID,100,VALID,0,VALID,19.1871,VALID,106,VALID,0.303819,
2003-06-12, 00:39:01,VALID,918.726,VALID,0,VALID,100,VALID,-0.0169808,VALID,19.2136,VALID,115,VALID,0.913851,
2003-06-12, 00:40:00,VALID,918.734,VALID,0,VALID,100,VALID,0,VALID,19.2131,VALID,97,VALID,0.676604,
2003-06-12, 00:41:01,VALID,918.722,VALID,0,VALID,100,VALID,0,VALID,19.2198,VALID,81,VALID,0.938117,
2003-06-12, 00:42:00,VALID,918.708,VALID,0,VALID,100,VALID,-0.0339617,VALID,19.2069,VALID,74,VALID,0.992839,
2003-06-12, 00:43:01,VALID,918.688,VALID,0,VALID,100,VALID,0,VALID,19.2005,VALID,89,VALID,1.01457,
2003-06-12, 00:44:00,VALID,918.658,VALID,0,VALID,100,VALID,0,VALID,19.2206,VALID,64,VALID,1.54482,
2003-06-12, 00:45:01,VALID,918.628,VALID,0,VALID,100,VALID,0,VALID,19.2002,VALID,67,VALID,1.67927,
2003-06-12, 00:46:01,VALID,918.604,VALID,0,VALID,100,VALID,-0.0339617,VALID,19.2104,VALID,69,VALID,1.67488,
2003-06-12, 00:47:00,VALID,918.577,VALID,0,VALID,100,VALID,-0.0339617,VALID,19.2072,VALID,54,VALID,1.51753,
2003-06-12, 00:48:00,VALID,918.559,VALID,0,VALID,100,VALID,0,VALID,19.2238,VALID,80,VALID,1.65625,
2003-06-12, 00:49:00,VALID,918.549,VALID,0,VALID,100,VALID,-0.0169808,VALID,19.2166,VALID,68,VALID,1.5654,
2003-06-12, 00:50:00,VALID,918.548,VALID,0,VALID,100,VALID,0,VALID,19.2168,VALID,64,VALID,1.43518,
2003-06-12, 00:51:01,VALID,918.529,VALID,0,VALID,100,VALID,-0.0169808,VALID,19.2461,VALID,68,VALID,1.59215,
2003-06-12, 00:52:01,VALID,918.498,VALID,0,VALID,100,VALID,-0.0169808,VALID,19.2593,VALID,68,VALID,1.15134,
2003-06-12, 00:53:00,VALID,918.479,VALID,0,VALID,100,VALID,0,VALID,19.2489,VALID,67,VALID,1.21453,
2003-06-12, 00:54:01,VALID,918.458,VALID,0,VALID,100,VALID,-0.0169808,VALID,19.239,VALID,64,VALID,1.3214,
2003-06-12, 00:55:01,VALID,918.428,VALID,0,VALID,100,VALID,-0.0169808,VALID,19.2489,VALID,70,VALID,1.56113,
2003-06-12, 00:56:00,VALID,918.405,VALID,0,VALID,100,VALID,0,VALID,19.2662,VALID,61,VALID,1.52063,
2003-06-12, 00:57:01,VALID,918.379,VALID,0,VALID,100,VALID,0,VALID,19.2491,VALID,56,VALID,1.44832,
2003-06-12, 00:58:00,VALID,918.362,VALID,0,VALID,100,VALID,0,VALID,19.2551,VALID,57,VALID,1.64996,
2003-06-12, 00:59:01,VALID,918.339,VALID,0,VALID,100,VALID,-0.0169808,VALID,19.2586,VALID,68,VALID,1.09438,
2003-06-12, 01:00:00,VALID,918.332,VALID,0,VALID,100,VALID,-0.0169808,VALID,19.2625,VALID,74,VALID,1.01398,
2003-06-12, 01:01:01,VALID,918.323,VALID,0,VALID,100,VALID,-0.0339617,VALID,19.2526,VALID,74,VALID,1.25699,
2003-06-12, 01:02:00,VALID,918.322,VALID,0,VALID,100,VALID,-0.0339617,VALID,19.2486,VALID,59,VALID,0.846788,
2003-06-12, 01:03:01,VALID,918.314,VALID,0,VALID,100,VALID,-0.0339617,VALID,19.2757,VALID,74,VALID,0.722551,
2003-06-12, 01:04:00,VALID,918.31,VALID,0,VALID,100,VALID,0,VALID,19.272,VALID,100,VALID,0.586965,
2003-06-12, 01:05:01,VALID,918.312,VALID,0,VALID,100,VALID,0,VALID,19.2675,VALID,112,VALID,0.108953,
2003-06-12, 01:06:01,VALID,918.314,VALID,0,VALID,100,VALID,0,VALID,19.2874,VALID,112,VALID,0.103566,
2003-06-12, 01:07:00,VALID,918.308,VALID,0,VALID,100,VALID,-0.0339617,VALID,19.3104,VALID,112,VALID,0.0259713,
2003-06-12, 01:08:00,VALID,918.311,VALID,0,VALID,100,VALID,-0.0169808,VALID,19.336,VALID,113,VALID,0.17652,
2003-06-12, 01:09:00,VALID,918.313,VALID,0,VALID,100,VALID,-0.0509425,VALID,19.3301,VALID,199,VALID,0.381696,
2003-06-12, 01:10:00,VALID,918.311,VALID,0,VALID,100,VALID,0,VALID,19.3201,VALID,220,VALID,0.442356,
2003-06-12, 01:11:00,VALID,918.307,VALID,0,VALID,100,VALID,0,VALID,19.3298,VALID,220,VALID,0.430489,
2003-06-12, 01:12:01,VALID,918.301,VALID,0,VALID,100,VALID,0.0169808,VALID,19.3298,VALID,218,VALID,0.122098,
2003-06-12, 01:13:00,VALID,918.282,VALID,0,VALID,99.999,VALID,0,VALID,19.3492,VALID,212,VALID,0.218961,
2003-06-12, 01:14:01,VALID,918.278,VALID,0,VALID,100,VALID,0,VALID,19.3623,VALID,204,VALID,0.00716146,
2003-06-12, 01:15:01,VALID,918.25,VALID,0,VALID,100,VALID,0,VALID,19.3658,VALID,203,VALID,0.0990234,
2003-06-12, 01:16:00,VALID,918.21,VALID,0,VALID,99.999,VALID,0.0169808,VALID,19.369,VALID,188,VALID,0.177684,
2003-06-12, 01:17:01,VALID,918.177,VALID,0,VALID,99.999,VALID,0,VALID,19.3395,VALID,73,VALID,0.790264,
2003-06-12, 01:18:00,VALID,918.149,VALID,0,VALID,100,VALID,-0.0169808,VALID,19.3042,VALID,66,VALID,0.868924,
2003-06-12, 01:19:01,VALID,918.128,VALID,0,VALID,99.999,VALID,-0.0169808,VALID,19.2978,VALID,64,VALID,0.979519,
2003-06-12, 01:20:00,VALID,918.108,VALID,0,VALID,99.998,VALID,-0.0169808,VALID,19.304,VALID,78,VALID,0.770354,
2003-06-12, 01:21:01,VALID,918.095,VALID,0,VALID,99.9977,VALID,0,VALID,19.2878,VALID,78,VALID,0.461349,
2003-06-12, 01:22:00,VALID,918.073,VALID,0,VALID,99.9977,VALID,-0.0169808,VALID,19.2816,VALID,74,VALID,0.358073,
2003-06-12, 01:23:01,VALID,918.076,VALID,0,VALID,99.9967,VALID,-0.0169808,VALID,19.265,VALID,71,VALID,0.529983,
2003-06-12, 01:24:00,VALID,918.058,VALID,0,VALID,100,VALID,-0.0169808,VALID,19.2878,VALID,68,VALID,0.620271,
2003-06-12, 01:25:01,VALID,918.046,VALID,0,VALID,100,VALID,0,VALID,19.2948,VALID,49,VALID,0.611275,
2003-06-12, 01:26:01,VALID,918.039,VALID,0,VALID,99.999,VALID,-0.0169808,VALID,19.2588,VALID,38,VALID,0.778446,
2003-06-12, 01:27:00,VALID,918.017,VALID,0,VALID,100,VALID,-0.0679233,VALID,19.259,VALID,39,VALID,0.955236,
2003-06-12, 01:28:00,VALID,918.01,VALID,0,VALID,99.999,VALID,-0.0169808,VALID,19.2556,VALID,40,VALID,0.720439,
2003-06-12, 01:29:00,VALID,918.021,VALID,0,VALID,100,VALID,-0.0509425,VALID,19.259,VALID,39,VALID,0.597545,
2003-06-12, 01:30:00,VALID,918.015,VALID,0,VALID,100,VALID,-0.0339617,VALID,19.2687,VALID,39,VALID,0.483319,
2003-06-12, 01:31:01,VALID,918.012,VALID,0,VALID,100,VALID,-0.0169808,VALID,19.239,VALID,39,VALID,0.551282,
2003-06-12, 01:32:01,VALID,918,VALID,0,VALID,100,VALID,0,VALID,19.2323,VALID,39,VALID,0.323438,
2003-06-12, 01:33:00,VALID,918.016,VALID,0,VALID,99.999,VALID,0,VALID,19.262,VALID,39,VALID,0.0371622,
2003-06-12, 01:34:01,VALID,918.014,VALID,0,VALID,100,VALID,0,VALID,19.2583,VALID,26,VALID,0.300564,
2003-06-12, 01:35:01,VALID,918.015,VALID,0,VALID,100,VALID,-0.0339617,VALID,19.2648,VALID,354,VALID,0.456445,
2003-06-12, 01:36:00,VALID,918.005,VALID,0,VALID,100,VALID,-0.0169808,VALID,19.2519,VALID,327,VALID,0.471955,
2003-06-12, 01:37:01,VALID,918.002,VALID,0,VALID,100,VALID,-0.0169808,VALID,19.2814,VALID,327,VALID,0.201122,
2003-06-12, 01:38:00,VALID,917.974,VALID,0,VALID,100,VALID,0,VALID,19.298,VALID,327,VALID,0,
2003-06-12, 01:39:01,VALID,917.953,VALID,0,VALID,100,VALID,0,VALID,19.307,VALID,327,VALID,0,
2003-06-12, 01:40:00,VALID,917.941,VALID,0,VALID,100,VALID,-0.0509425,VALID,19.3266,VALID,327,VALID,0,
2003-06-12, 01:41:01,VALID,917.92,VALID,0,VALID,99.999,VALID,-0.0169808,VALID,19.3492,VALID,327,VALID,0.0538651,
2003-06-12, 01:42:00,VALID,917.903,VALID,0,VALID,100,VALID,-0.0169808,VALID,19.3551,VALID,330,VALID,0.272352,
2003-06-12, 01:43:01,VALID,917.9,VALID,0,VALID,100,VALID,-0.0169808,VALID,19.3522,VALID,330,VALID,0.228252,
2003-06-12, 01:44:00,VALID,917.888,VALID,0,VALID,100,VALID,-0.0169808,VALID,19.3395,VALID,330,VALID,0.14741,
2003-06-12, 01:45:01,VALID,917.87,VALID,0,VALID,100,VALID,-0.0339617,VALID,19.336,VALID,330,VALID,0.00548986,
2003-06-12, 01:46:01,VALID,917.839,VALID,0,VALID,100,VALID,-0.0169808,VALID,19.3261,VALID,330,VALID,0,
2003-06-12, 01:47:00,VALID,917.809,VALID,0,VALID,100,VALID,-0.0509425,VALID,19.3234,VALID,330,VALID,0,
2003-06-12, 01:48:00,VALID,917.774,VALID,0,VALID,100,VALID,-0.0339617,VALID,19.3137,VALID,330,VALID,0,
2003-06-12, 01:49:01,VALID,917.741,VALID,0,VALID,100,VALID,-0.0339617,VALID,19.3033,VALID,330,VALID,0.135937,
2003-06-12, 01:50:00,VALID,917.711,VALID,0,VALID,99.999,VALID,-0.0169808,VALID,19.3037,VALID,252,VALID,0.382179,
2003-06-12, 01:51:00,VALID,917.675,VALID,0,VALID,100,VALID,0,VALID,19.2809,VALID,164,VALID,0.393029,
2003-06-12, 01:52:01,VALID,917.637,VALID,0,VALID,100,VALID,-0.0169808,VALID,19.2749,VALID,164,VALID,0.400223,
2003-06-12, 01:53:00,VALID,917.607,VALID,0,VALID,100,VALID,-0.0169808,VALID,19.2523,VALID,164,VALID,0.204603,
2003-06-12, 01:54:01,VALID,917.585,VALID,0,VALID,100,VALID,-0.0169808,VALID,19.229,VALID,162,VALID,0.32053,
2003-06-12, 01:55:01,VALID,917.571,VALID,0,VALID,100,VALID,-0.0339617,VALID,19.2268,VALID,149,VALID,0.805469,
2003-06-12, 01:56:00,VALID,917.556,VALID,0,VALID,100,VALID,-0.0169808,VALID,19.2099,VALID,140,VALID,0.833133,
2003-06-12, 01:57:01,VALID,917.537,VALID,0,VALID,100,VALID,-0.0509425,VALID,19.2037,VALID,143,VALID,0.84996,
2003-06-12, 01:58:01,VALID,917.528,VALID,0,VALID,100,VALID,0,VALID,19.1843,VALID,151,VALID,0.644748,
2003-06-12, 01:59:01,VALID,917.508,VALID,0,VALID,99.999,VALID,-0.0849042,VALID,19.1784,VALID,153,VALID,0.597551,
2003-06-12, 02:00:01,VALID,917.506,VALID,0,VALID,100,VALID,-0.0169808,VALID,19.158,VALID,154,VALID,0.51028,
2003-06-12, 02:01:01,VALID,917.477,VALID,0,VALID,100,VALID,0,VALID,19.1744,VALID,154,VALID,0.337993,
2003-06-12, 02:02:01,VALID,917.458,VALID,0,VALID,100,VALID,0,VALID,19.1843,VALID,153,VALID,0.249783,
2003-06-12, 02:03:01,VALID,917.446,VALID,0,VALID,100,VALID,-0.0169808,VALID,19.1709,VALID,146,VALID,0.261613,
2003-06-12, 02:04:01,VALID,917.435,VALID,0,VALID,100,VALID,-0.0169808,VALID,19.1883,VALID,110,VALID,0.530428,
2003-06-12, 02:05:01,VALID,917.39,VALID,0,VALID,100,VALID,-0.0169808,VALID,19.191,VALID,97,VALID,0.686899,
2003-06-12, 02:06:01,VALID,917.39,VALID,0,VALID,100,VALID,-0.0169808,VALID,19.2044,VALID,100,VALID,0.546675,
2003-06-12, 02:07:01,VALID,917.389,VALID,0,VALID,100,VALID,0,VALID,19.2106,VALID,97,VALID,0.630912,
2003-06-12, 02:08:01,VALID,917.367,VALID,0,VALID,100,VALID,-0.0339617,VALID,19.2265,VALID,82,VALID,0.731208,
2003-06-12, 02:09:01,VALID,917.351,VALID,0,VALID,100,VALID,0,VALID,19.2365,VALID,72,VALID,0.764286,
2003-06-12, 02:10:01,VALID,917.33,VALID,0,VALID,100,VALID,-0.0339617,VALID,19.2461,VALID,75,VALID,0.744088,
2003-06-12, 02:11:01,VALID,917.331,VALID,0,VALID,100,VALID,0,VALID,19.233,VALID,82,VALID,0.5627,
2003-06-12, 02:12:01,VALID,917.317,VALID,0,VALID,100,VALID,-0.0339617,VALID,19.2166,VALID,97,VALID,0.498884,
2003-06-12, 02:13:01,VALID,917.305,VALID,0,VALID,100,VALID,0,VALID,19.2228,VALID,121,VALID,0.376689,
2003-06-12, 02:14:01,VALID,917.292,VALID,0,VALID,100,VALID,-0.0169808,VALID,19.2295,VALID,138,VALID,0.382161,
2003-06-12, 02:15:01,VALID,917.267,VALID,0,VALID,100,VALID,0,VALID,19.2558,VALID,132,VALID,0.233594,
2003-06-12, 02:16:01,VALID,917.26,VALID,0,VALID,100,VALID,-0.0169808,VALID,19.2461,VALID,125,VALID,0.386218,
2003-06-12, 02:17:01,VALID,917.242,VALID,0,VALID,100,VALID,0,VALID,19.2457,VALID,124,VALID,0.719952,
2003-06-12, 02:18:00,VALID,917.231,VALID,0,VALID,100,VALID,-0.0509425,VALID,19.2298,VALID,128,VALID,1.03885,
2003-06-12, 02:19:00,VALID,917.217,VALID,0,VALID,100,VALID,-0.0339617,VALID,19.2228,VALID,127,VALID,0.811444,
2003-06-12, 02:20:00,VALID,917.21,VALID,0,VALID,100,VALID,-0.0169808,VALID,19.23,VALID,112,VALID,0.967516,
2003-06-12, 02:21:00,VALID,917.193,VALID,0,VALID,100,VALID,0,VALID,19.2069,VALID,115,VALID,0.988487,
2003-06-12, 02:22:00,VALID,917.188,VALID,0,VALID,100,VALID,-0.0169808,VALID,19.2166,VALID,114,VALID,0.995443,
2003-06-12, 02:23:00,VALID,917.161,VALID,0,VALID,100,VALID,-0.0169808,VALID,19.2039,VALID,113,VALID,1.65477,
2003-06-12, 02:24:00,VALID,917.136,VALID,0,VALID,100,VALID,-0.0339617,VALID,19.1943,VALID,109,VALID,1.1581,
2003-06-12, 02:25:00,VALID,917.117,VALID,0,VALID,100,VALID,-0.0339617,VALID,19.188,VALID,105,VALID,1.29497,
2003-06-12, 02:26:00,VALID,917.096,VALID,0,VALID,100,VALID,-0.0339617,VALID,19.188,VALID,93,VALID,0.813301,
2003-06-12, 02:27:00,VALID,917.083,VALID,0,VALID,100,VALID,-0.0339617,VALID,19.1776,VALID,124,VALID,0.791807,
2003-06-12, 02:28:00,VALID,917.064,VALID,0,VALID,100,VALID,-0.0339617,VALID,19.1908,VALID,141,VALID,0.718539,
2003-06-12, 02:29:00,VALID,917.058,VALID,0,VALID,100,VALID,0,VALID,19.2007,VALID,127,VALID,0.913839,
2003-06-12, 02:30:00,VALID,917.06,VALID,0,VALID,100,VALID,0,VALID,19.198,VALID,145,VALID,0.819046,
2003-06-12, 02:31:00,VALID,917.057,VALID,0,VALID,100,VALID,-0.0339617,VALID,19.1913,VALID,149,VALID,0.929087,
2003-06-12, 02:32:00,VALID,917.053,VALID,0,VALID,100,VALID,-0.0169808,VALID,19.1846,VALID,147,VALID,1.05804,
2003-06-12, 02:33:00,VALID,917.056,VALID,0,VALID,100,VALID,-0.0339617,VALID,19.201,VALID,167,VALID,0.750633,
2003-06-12, 02:34:00,VALID,917.05,VALID,0,VALID,100,VALID,-0.0339617,VALID,19.1947,VALID,167,VALID,0.770833,
2003-06-12, 02:35:00,VALID,917.054,VALID,0,VALID,100,VALID,0,VALID,19.1885,VALID,152,VALID,0.663086,
2003-06-12, 02:36:00,VALID,917.049,VALID,0,VALID,100,VALID,0,VALID,19.1878,VALID,161,VALID,1.13001,
2003-06-12, 02:37:00,VALID,917.049,VALID,0,VALID,100,VALID,0,VALID,19.1806,VALID,162,VALID,0.542268,
2003-06-12, 02:38:00,VALID,917.049,VALID,0,VALID,100,VALID,0,VALID,19.1913,VALID,159,VALID,1.43381,
2003-06-12, 02:39:00,VALID,917.053,VALID,0,VALID,100,VALID,0,VALID,19.1915,VALID,161,VALID,1.00739,
2003-06-12, 02:40:00,VALID,917.053,VALID,0,VALID,100,VALID,0,VALID,19.1851,VALID,158,VALID,0.997533,
2003-06-12, 02:41:00,VALID,917.052,VALID,0,VALID,100,VALID,-0.0339617,VALID,19.1818,VALID,146,VALID,1.25164,
2003-06-12, 02:42:00,VALID,917.062,VALID,0,VALID,100,VALID,-0.0169808,VALID,19.1784,VALID,147,VALID,1.52279,
2003-06-12, 02:43:00,VALID,917.056,VALID,0,VALID,100,VALID,-0.0169808,VALID,19.1687,VALID,143,VALID,1.15942,
2003-06-12, 02:44:00,VALID,917.053,VALID,0,VALID,100,VALID,0.0169808,VALID,19.1585,VALID,142,VALID,1.45991,
2003-06-12, 02:45:00,VALID,917.046,VALID,0,VALID,100,VALID,-0.0169808,VALID,19.1684,VALID,139,VALID,1.4734,
2003-06-12, 02:46:00,VALID,917.037,VALID,0,VALID,100,VALID,-0.0169808,VALID,19.1617,VALID,146,VALID,1.20593,
2003-06-12, 02:47:00,VALID,917.039,VALID,0,VALID,100,VALID,-0.0509425,VALID,19.1788,VALID,121,VALID,0.802576,
2003-06-12, 02:48:00,VALID,917.021,VALID,0,VALID,100,VALID,-0.0169808,VALID,19.1652,VALID,122,VALID,1.2348,
2003-06-12, 02:49:00,VALID,917.027,VALID,0,VALID,100,VALID,0,VALID,19.1754,VALID,137,VALID,0.954687,
2003-06-12, 02:50:00,VALID,917.04,VALID,0,VALID,100,VALID,-0.0169808,VALID,19.1883,VALID,119,VALID,0.734797,
2003-06-12, 02:51:00,VALID,917.038,VALID,0,VALID,100,VALID,-0.0169808,VALID,19.1913,VALID,151,VALID,1.39904,
2003-06-12, 02:52:00,VALID,917.058,VALID,0,VALID,100,VALID,-0.0339617,VALID,19.1945,VALID,142,VALID,1.91004,
2003-06-12, 02:53:00,VALID,917.059,VALID,0,VALID,100,VALID,-0.0169808,VALID,19.2012,VALID,146,VALID,1.73944,
2003-06-12, 02:54:00,VALID,917.066,VALID,0,VALID,100,VALID,0,VALID,19.2079,VALID,151,VALID,1.69162,
2003-06-12, 02:55:00,VALID,917.071,VALID,0,VALID,100,VALID,-0.0169808,VALID,19.2106,VALID,152,VALID,1.30723,
2003-06-12, 02:56:00,VALID,917.063,VALID,0,VALID,100,VALID,-0.0169808,VALID,19.2042,VALID,139,VALID,1.34595,
2003-06-12, 02:57:00,VALID,917.054,VALID,0,VALID,100,VALID,0,VALID,19.2042,VALID,137,VALID,1.3143,
2003-06-12, 02:58:00,VALID,917.049,VALID,0,VALID,100,VALID,-0.0339617,VALID,19.2106,VALID,142,VALID,1.45725,
2003-06-12, 02:59:00,VALID,917.028,VALID,0,VALID,100,VALID,0,VALID,19.2235,VALID,143,VALID,1.51246,
2003-06-12, 03:00:00,VALID,917.016,VALID,0,VALID,100,VALID,-0.0169808,VALID,19.2233,VALID,162,VALID,0.962788,
2003-06-12, 03:01:00,VALID,917.001,VALID,0,VALID,100,VALID,-0.0339617,VALID,19.2201,VALID,153,VALID,1.01542,
2003-06-12, 03:02:00,VALID,916.98,VALID,0,VALID,100,VALID,0,VALID,19.2206,VALID,157,VALID,0.733507,
2003-06-12, 03:03:00,VALID,916.961,VALID,0,VALID,100,VALID,0,VALID,19.2208,VALID,143,VALID,0.860431,
2003-06-12, 03:04:00,VALID,916.941,VALID,0,VALID,99.9977,VALID,0,VALID,19.201,VALID,147,VALID,0.576891,
2003-06-12, 03:05:00,VALID,916.937,VALID,0,VALID,100,VALID,0,VALID,19.201,VALID,136,VALID,0.853041,
2003-06-12, 03:06:00,VALID,916.935,VALID,0,VALID,99.999,VALID,-0.0169808,VALID,19.1945,VALID,141,VALID,1.16166,
2003-06-12, 03:07:00,VALID,916.92,VALID,0,VALID,99.999,VALID,0,VALID,19.2039,VALID,118,VALID,1.10051,
2003-06-12, 03:08:00,VALID,916.913,VALID,0,VALID,100,VALID,0,VALID,19.2072,VALID,136,VALID,1.03801,
2003-06-12, 03:09:00,VALID,916.912,VALID,0,VALID,99.999,VALID,-0.0169808,VALID,19.2201,VALID,126,VALID,1.07835,
2003-06-12, 03:10:00,VALID,916.916,VALID,0,VALID,99.999,VALID,0,VALID,19.23,VALID,127,VALID,0.859797,
2003-06-12, 03:11:00,VALID,916.924,VALID,0,VALID,99.998,VALID,0,VALID,19.2238,VALID,106,VALID,0.84355,
2003-06-12, 03:12:00,VALID,916.913,VALID,0,VALID,100,VALID,0,VALID,19.2238,VALID,122,VALID,0.768973,
2003-06-12, 03:13:00,VALID,916.908,VALID,0,VALID,100,VALID,0,VALID,19.2168,VALID,85,VALID,0.596917,
2003-06-12, 03:14:00,VALID,916.901,VALID,0,VALID,100,VALID,0,VALID,19.23,VALID,111,VALID,0.731988,
2003-06-12, 03:15:00,VALID,916.899,VALID,0,VALID,100,VALID,0,VALID,19.23,VALID,145,VALID,0.905664,
2003-06-12, 03:16:00,VALID,916.882,VALID,0,VALID,100,VALID,0,VALID,19.2459,VALID,147,VALID,1.31991,
2003-06-12, 03:17:00,VALID,916.882,VALID,0,VALID,100,VALID,0,VALID,19.2523,VALID,153,VALID,0.828526,
2003-06-12, 03:18:00,VALID,916.882,VALID,0,VALID,100,VALID,0,VALID,19.2394,VALID,145,VALID,1.69727,
2003-06-12, 03:19:00,VALID,916.888,VALID,0,VALID,99.9977,VALID,0,VALID,19.259,VALID,158,VALID,1.11149,
2003-06-12, 03:20:00,VALID,916.893,VALID,0,VALID,99.999,VALID,-0.0169808,VALID,19.2461,VALID,137,VALID,1.1398,
2003-06-12, 03:21:00,VALID,916.881,VALID,0,VALID,100,VALID,0.0339617,VALID,19.2526,VALID,124,VALID,0.643298,
2003-06-12, 03:22:00,VALID,916.887,VALID,0,VALID,100,VALID,0,VALID,19.2565,VALID,137,VALID,0.868056,
2003-06-12, 03:23:00,VALID,916.885,VALID,0,VALID,99.999,VALID,-0.0169808,VALID,19.2429,VALID,146,VALID,1.17251,
2003-06-12, 03:24:00,VALID,916.873,VALID,0,VALID,100,VALID,0,VALID,19.2295,VALID,142,VALID,1.35238,
2003-06-12, 03:25:00,VALID,916.857,VALID,0,VALID,99.999,VALID,-0.0169808,VALID,19.2431,VALID,141,VALID,1.26731,
2003-06-12, 03:26:00,VALID,916.852,VALID,0,VALID,99.998,VALID,0,VALID,19.2498,VALID,142,VALID,1.06891,
2003-06-12, 03:27:00,VALID,916.84,VALID,0,VALID,99.9896,VALID,-0.0339617,VALID,19.2498,VALID,151,VALID,1.06102,
2003-06-12, 03:28:00,VALID,916.849,VALID,0,VALID,99.9908,VALID,-0.0169808,VALID,19.2339,VALID,132,VALID,0.966639,
2003-06-12, 03:29:00,VALID,916.857,VALID,0,VALID,99.9906,VALID,0,VALID,19.2402,VALID,138,VALID,1.39888,
2003-06-12, 03:30:00,VALID,916.853,VALID,0,VALID,99.9954,VALID,-0.0509425,VALID,19.2431,VALID,137,VALID,0.959248,
2003-06-12, 03:31:00,VALID,916.871,VALID,0,VALID,99.9919,VALID,-0.0339617,VALID,19.2498,VALID,134,VALID,0.666466,
2003-06-12, 03:32:00,VALID,916.882,VALID,0,VALID,99.9941,VALID,-0.0339617,VALID,19.2335,VALID,125,VALID,0.44375,
2003-06-12, 03:33:00,VALID,916.883,VALID,0,VALID,99.9969,VALID,-0.0509425,VALID,19.2337,VALID,97,VALID,0.639358,
2003-06-12, 03:34:00,VALID,916.888,VALID,0,VALID,99.998,VALID,-0.0339617,VALID,19.2238,VALID,66,VALID,0.078559,
2003-06-12, 03:35:00,VALID,916.886,VALID,0,VALID,99.9911,VALID,0,VALID,19.2176,VALID,66,VALID,0.179297,
2003-06-12, 03:36:00,VALID,916.897,VALID,0,VALID,99.9967,VALID,-0.0339617,VALID,19.2178,VALID,66,VALID,0.0923478,
2003-06-12, 03:37:00,VALID,916.892,VALID,0,VALID,99.9967,VALID,-0.0339617,VALID,19.2106,VALID,56,VALID,0.290665,
2003-06-12, 03:38:00,VALID,916.894,VALID,0,VALID,99.9941,VALID,-0.0509425,VALID,19.2176,VALID,38,VALID,0.335069,
2003-06-12, 03:39:00,VALID,916.906,VALID,0,VALID,99.9883,VALID,-0.0339617,VALID,19.2178,VALID,33,VALID,0.257179,
2003-06-12, 03:40:00,VALID,916.913,VALID,0,VALID,99.9944,VALID,-0.0509425,VALID,19.2079,VALID,11,VALID,0.249383,
2003-06-12, 03:41:00,VALID,916.925,VALID,0,VALID,99.998,VALID,-0.0509425,VALID,19.1885,VALID,325,VALID,0.453742,
2003-06-12, 03:42:00,VALID,916.926,VALID,0,VALID,99.9957,VALID,-0.0339617,VALID,19.1982,VALID,309,VALID,0.140408,
2003-06-12, 03:43:00,VALID,916.935,VALID,0,VALID,99.9873,VALID,-0.0679233,VALID,19.1947,VALID,309,VALID,0.331926,